Location: Camp at the Woods
(43.2055°N, 93.0905°W)
Time: 06:29:09
(UTC+00:00)

Helios 1A - Visible Passes

Search period start: 21 May 2024 00:00
Search period end: 31 May 2024 00:00
Orbit: 570 x 580 km, 98.3° (Epoch: 30 March)

Date Brightness Start Highest point End Pass type
(mag) Time Alt. Az. Time Alt. Az. Time Alt. Az.
21 May 6.3 02:14:33 10° NNW 02:16:41 14° WNW 02:18:47 10° W visible
22 May 6.4 02:17:36 10° NNW 02:19:31 13° WNW 02:21:27 10° W visible
23 May 6.5 02:20:39 10° NW 02:22:22 12° WNW 02:24:04 10° W visible
24 May 6.6 02:23:44 10° NW 02:25:11 12° WNW 02:26:38 10° W visible
25 May 6.7 02:26:52 10° NW 02:28:00 11° WNW 02:29:07 10° WNW visible
26 May 6.8 02:30:08 10° NW 02:30:47 10° WNW 02:31:27 10° WNW visible
